This is the latest recevied weather packets stored in our database for station/object YM7KGL-1. If no packets are shown the sender has not sent any weather packets the latest 10 day(s).
| Time | Temp. | Humidity | Pressure | Rain* | Wind** | Luminosity | Snow |
|---|---|---|---|---|---|---|---|
| 1778059495 | 21.67° C | 52% | 1017.3 hPa | - | - | - | - |
| 1778058654 | 19.44° C | 54% | 1017.5 hPa | - | - | - | - |
| 1778058591 | 21.11° C | 53% | 1017.4 hPa | - | - | - | - |
| 1778057690 | 20.56° C | 53% | 1017.3 hPa | - | - | - | - |
| 1778056791 | 20° C | 53% | 1017.4 hPa | - | - | - | - |
| 1778056269 | 18.89° C | 54% | 1017.3 hPa | - | - | - | - |
| 1778055885 | 19.44° C | 54% | 1017.5 hPa | - | - | - | - |
| 1778054802 | 18.89° C | 54% | 1017.1 hPa | - | - | - | - |
| 1778054084 | 18.89° C | 54% | 1017.3 hPa | - | - | - | - |
| 1778053533 | 18.33° C | 54% | 1017.1 hPa | - | - | - | - |
| 1778050479 | 17.22° C | 56% | 1016.9 hPa | - | - | - | - |
| 1778049580 | 16.67° C | 56% | 1016.7 hPa | - | - | - | - |
| 1778048982 | 16.67° C | 56% | 1016.7 hPa | - | - | - | - |
| 1778048082 | 16.11° C | 56% | 1016.7 hPa | - | - | - | - |
| 1778047186 | 15.56° C | 56% | 1016.5 hPa | - | - | - | - |
| 1778047181 | 15.56° C | 57% | 1016.6 hPa | - | - | - | - |
| 1778046281 | 15.56° C | 56% | 1016.5 hPa | - | - | - | - |
| 1778045511 | 15° C | 56% | 1016.5 hPa | - | - | - | - |
| 1778044610 | 15° C | 56% | 1016.5 hPa | - | - | - | - |
| 1778043710 | 14.44° C | 57% | 1016.3 hPa | - | - | - | - |
| 1778042810 | 13.89° C | 57% | 1016.1 hPa | - | - | - | - |
| 1778042236 | 13.89° C | 57% | 1016.1 hPa | - | - | - | - |
| 1778041335 | 13.89° C | 57% | 1016.1 hPa | - | - | - | - |
| 1778040434 | 13.33° C | 57% | 1015.8 hPa | - | - | - | - |
| 1778039534 | 13.33° C | 57% | 1015.7 hPa | - | - | - | - |
* Rain since midnight (hover to see other rain measurements)
** Current wind speed in m/s (hover to see current wind gust speed)